Location: Cluj-Napoca
(46.7712°N, 23.6236°E)
Time: 18:22:34
(UTC+03:00)

ISS - Pass Details

Date: 27 May 2020
Orbit: 417 x 420 km, 51.6° (Epoch: 26 May)

Event Time Altitude Azimuth Distance (km) Brightness Sun altitude
Rises 21:45:50 0° 291° (WNW) 2,366 1.7 -6.1°
Reaches altitude 10° 21:48:02 10° 299° (WNW) 1,502 0.7 -6.4°
Maximum altitude 21:51:13 39° 10° (N) 648 -2.5 -6.8°
Drops below altitude 10° 21:54:25 10° 82° (E) 1,500 -1.3 -7.2°
Enters shadow 21:55:57 - 88° (E) 2,105 -0.6 -7.4°
